Weather History for KSHL - February, 2014

Change the Weather History Date:

Saturday, February 15, 2014

  Actual Average Record
Temperature  
Mean Temperature 18 °F -  
Max Temperature 39 °F 26 °F - (-1)
Min Temperature -2 °F 9 °F - (-1)
Degree Days  
Heating Degree Days 46    
Moisture  
Dew Point 16 °F    
Average Humidity 79    
Maximum Humidity 87    
Minimum Humidity 67    
Precipitation  
Precipitation 0.00 in - - ()
Sea Level Pressure  
Sea Level Pressure 29.85 in    
Wind  
Wind Speed 13 mph (SW)    
Max Wind Speed 25 mph    
Max Gust Speed 34 mph    
Visibility 10 miles    
Events Snow    
Averages and records for this station are not official NWS values.
T = Trace of Precipitation, MM = Missing Value Source: NWS Daily Summary

Daily Weather History Graph

Daily Weather History Graph

Search for Another Location

Airport or City:

Trip Planner

Search our weather history database for the weather conditions in past years. The results will help you decide how hot, cold, wet, or windy it might be!

Date:

Astronomy

Feb. 15, 2014 Rise Set
Actual Time 7:21 AM CST 5:54 PM CST
Civil Twilight 6:51 AM CST 6:23 PM CST
Nautical Twilight 6:18 AM CST 6:57 PM CST
Astronomical Twilight 5:45 AM CST 7:30 PM CST
Moon 6:58 PM CST (2/15) 7:18 AM CST (2/15)
Length of Visible Light 11h 31m
Length of Day
10h 33m
Waxing Gibbous, 99% of the Moon is Illuminated
Feb 15
Waxing Gibbous
Feb 22
Last Quarter
Mar 1
New
Mar 8
First Quarter
Mar 16
Full

Hourly Weather History & Observations

Time (CST) Temp. Windchill Dew Point Humidity Pressure Visibility Wind Dir Wind Speed Gust Speed Precip Events Conditions
12:15 AM -2.2 °F -12.5 °F -7.6 °F 78% 29.97 in 10.0 mi SSE 4.6 mph - N/A   Clear
12:35 AM -2.2 °F - -7.6 °F 78% 29.97 in 10.0 mi Calm Calm - N/A   Clear
12:55 AM -0.4 °F -13.4 °F -5.8 °F 78% 29.97 in 10.0 mi SE 6.9 mph - N/A   Clear
1:15 AM -0.4 °F - -4.0 °F 85% 29.96 in 10.0 mi Calm Calm - N/A   Clear
1:35 AM 3.2 °F -10.3 °F -2.2 °F 78% 29.96 in 10.0 mi SSE 8.1 mph - N/A   Clear
1:55 AM 3.2 °F -10.3 °F -0.4 °F 85% 29.96 in 10.0 mi SSE 8.1 mph - N/A   Clear
2:15 AM 5.0 °F -9.1 °F -0.4 °F 78% 29.94 in 10.0 mi SSE 9.2 mph - N/A   Clear
2:35 AM 5.0 °F -10.0 °F -0.4 °F 78% 29.92 in 10.0 mi SSE 10.4 mph - N/A   Clear
2:55 AM 6.8 °F -2.0 °F -0.4 °F 72% 29.91 in 10.0 mi SSE 4.6 mph 12.7 mph N/A   Clear
3:15 AM 6.8 °F -4.8 °F 1.4 °F 79% 29.90 in 10.0 mi SE 6.9 mph - N/A   Clear
3:35 AM 8.6 °F -3.7 °F 1.4 °F 73% 29.89 in 10.0 mi SE 8.1 mph - N/A   Partly Cloudy
3:55 AM 8.6 °F -3.7 °F 1.4 °F 73% 29.88 in 10.0 mi SE 8.1 mph - N/A   Mostly Cloudy
4:15 AM 8.6 °F -4.7 °F 1.4 °F 73% 29.86 in 10.0 mi SE 9.2 mph - N/A   Mostly Cloudy
4:35 AM 10.4 °F -2.4 °F 3.2 °F 73% 29.86 in 10.0 mi SE 9.2 mph - N/A   Scattered Clouds
4:55 AM 10.4 °F -4.8 °F 3.2 °F 73% 29.85 in 10.0 mi SSE 12.7 mph - N/A   Scattered Clouds
5:15 AM 12.2 °F -1.8 °F 5.0 °F 73% 29.87 in 10.0 mi South 11.5 mph - N/A   Overcast
5:35 AM 12.2 °F -4.8 °F 5.0 °F 73% 29.84 in 10.0 mi SSE 17.3 mph - N/A   Overcast
5:55 AM 14.0 °F -3.0 °F 5.0 °F 67% 29.81 in 10.0 mi SSE 18.4 mph - N/A   Overcast
6:15 AM 14.0 °F -4.7 °F 6.8 °F 73% 29.79 in 10.0 mi SSE 23.0 mph 28.8 mph N/A   Overcast
6:35 AM 14.0 °F -5.5 °F 6.8 °F 73% 29.79 in 10.0 mi South 25.3 mph 32.2 mph N/A   Overcast
6:55 AM 15.8 °F -1.9 °F 8.6 °F 73% 29.76 in 10.0 mi South 21.9 mph 27.6 mph N/A   Mostly Cloudy
7:15 AM 17.6 °F 0.5 °F 10.4 °F 73% 29.73 in 10.0 mi SSE 21.9 mph - N/A   Overcast
7:35 AM 17.6 °F -0.3 °F 12.2 °F 79% 29.77 in 9.0 mi South 24.2 mph 31.1 mph N/A   Overcast
7:55 AM 19.4 °F 2.5 °F 12.2 °F 74% 29.76 in 9.0 mi South 23.0 mph - N/A   Mostly Cloudy
8:15 AM 17.6 °F 1.3 °F 14.0 °F 86% 29.76 in 10.0 mi South 19.6 mph 31.1 mph N/A   Mostly Cloudy
8:35 AM 19.4 °F 3.2 °F 14.0 °F 80% 29.76 in 9.0 mi South 20.7 mph 28.8 mph N/A   Overcast
8:55 AM 19.4 °F 3.6 °F 15.8 °F 86% 29.74 in 9.0 mi South 19.6 mph 28.8 mph N/A   Scattered Clouds
9:15 AM 21.2 °F 6.0 °F 15.8 °F 80% 29.76 in 9.0 mi South 19.6 mph 26.5 mph N/A   Mostly Cloudy
9:35 AM 21.2 °F 5.6 °F 17.6 °F 86% 29.74 in 9.0 mi South 20.7 mph - N/A   Mostly Cloudy
9:55 AM 23.0 °F 9.2 °F 17.6 °F 80% 29.73 in 10.0 mi South 17.3 mph 25.3 mph N/A   Mostly Cloudy
10:15 AM 23.0 °F 7.2 °F 19.4 °F 86% 29.73 in 8.0 mi South 23.0 mph 29.9 mph N/A   Overcast
10:35 AM 24.8 °F 10.3 °F 19.4 °F 80% 29.72 in 9.0 mi SSW 20.7 mph 26.5 mph N/A   Overcast
10:55 AM 26.6 °F 13.4 °F 21.2 °F 80% 29.73 in 10.0 mi SSW 18.4 mph 27.6 mph N/A   Scattered Clouds
11:15 AM 28.4 °F 15.1 °F 23.0 °F 80% 29.71 in 9.0 mi SSW 20.7 mph 27.6 mph N/A   Clear
11:35 AM 28.4 °F 15.4 °F 23.0 °F 80% 29.70 in 10.0 mi SSW 19.6 mph 25.3 mph N/A   Clear
11:55 AM 30.2 °F 18.5 °F 24.8 °F 80% 29.68 in 9.0 mi SSW 17.3 mph 25.3 mph N/A   Clear
12:15 PM 32.0 °F 20.1 °F 26.6 °F 80% 29.67 in 10.0 mi SSW 19.6 mph - N/A   Clear
12:35 PM 33.8 °F 22.2 °F 26.6 °F 75% 29.67 in 10.0 mi SW 20.7 mph - N/A   Clear
12:55 PM 35.6 °F 25.2 °F 28.4 °F 75% 29.66 in 10.0 mi SW 18.4 mph - N/A   Clear
1:15 PM 37.4 °F 28.9 °F 28.4 °F 70% 29.67 in 10.0 mi SW 13.8 mph 21.9 mph N/A   Clear
1:35 PM 39.2 °F 30.8 °F 30.2 °F 70% 29.66 in 10.0 mi SW 15.0 mph - N/A   Clear
1:55 PM 39.2 °F 29.8 °F 32.0 °F 75% 29.67 in 10.0 mi West 18.4 mph - N/A   Clear
2:15 PM 39.2 °F 29.8 °F 32.0 °F 75% 29.67 in 10.0 mi West 18.4 mph 28.8 mph N/A   Partly Cloudy
2:35 PM 39.2 °F 29.3 °F 32.0 °F 75% 29.68 in 10.0 mi WNW 20.7 mph 34.5 mph N/A   Unknown
2:55 PM 39.2 °F 29.3 °F 30.2 °F 70% 29.69 in 10.0 mi WNW 20.7 mph 33.4 mph N/A   Mostly Cloudy
3:15 PM 37.4 °F 26.9 °F 30.2 °F 75% 29.72 in 10.0 mi WNW 20.7 mph 28.8 mph N/A   Overcast
3:35 PM 35.6 °F 25.2 °F 30.2 °F 81% 29.74 in 10.0 mi NW 18.4 mph 26.5 mph N/A   Overcast
3:55 PM 33.8 °F 21.0 °F 30.2 °F 87% 29.76 in 9.0 mi NW 25.3 mph 32.2 mph N/A   Overcast
4:15 PM 33.8 °F 21.9 °F 28.4 °F 81% 29.79 in 10.0 mi NW 21.9 mph 28.8 mph N/A   Overcast
4:35 PM 33.8 °F 22.2 °F 28.4 °F 81% 29.80 in 10.0 mi NNW 20.7 mph 29.9 mph N/A   Overcast
4:55 PM 32.0 °F 20.1 °F 28.4 °F 87% 29.83 in 10.0 mi NW 19.6 mph 26.5 mph N/A   Overcast
5:15 PM 32.0 °F 19.5 °F 28.4 °F 87% 29.85 in 10.0 mi NW 21.9 mph 27.6 mph N/A   Overcast
5:35 PM 32.0 °F 20.1 °F 26.6 °F 80% 29.87 in 10.0 mi NNW 19.6 mph 26.5 mph N/A   Overcast
5:55 PM 32.0 °F 20.8 °F 28.4 °F 87% 29.89 in 10.0 mi NW 17.3 mph 25.3 mph N/A   Overcast
6:15 PM 32.0 °F 20.8 °F 26.6 °F 80% 29.91 in 10.0 mi NW 17.3 mph 28.8 mph N/A   Overcast
6:35 PM 30.2 °F 17.1 °F 26.6 °F 86% 29.92 in 10.0 mi NNW 21.9 mph 29.9 mph N/A   Overcast
6:55 PM 30.2 °F 18.1 °F 26.6 °F 86% 29.94 in 10.0 mi NW 18.4 mph 28.8 mph N/A   Overcast
7:15 PM 28.4 °F 14.7 °F 24.8 °F 86% 29.95 in 10.0 mi NW 21.9 mph 29.9 mph N/A   Overcast
7:35 PM 28.4 °F 14.4 °F 24.8 °F 86% 29.97 in 10.0 mi NNW 23.0 mph 28.8 mph N/A   Overcast
7:55 PM 28.4 °F 14.4 °F 24.8 °F 86% 29.98 in 10.0 mi NW 23.0 mph 28.8 mph N/A   Overcast
8:15 PM 26.6 °F 13.8 °F 23.0 °F 86% 29.99 in 10.0 mi NW 17.3 mph 25.3 mph N/A   Overcast
8:35 PM 26.6 °F 12.4 °F 23.0 °F 86% 29.99 in 10.0 mi NNW 21.9 mph - N/A   Overcast
8:55 PM 24.8 °F 10.3 °F 21.2 °F 86% 29.99 in 10.0 mi NNW 20.7 mph - N/A   Overcast
9:15 PM 23.0 °F 8.0 °F 19.4 °F 86% 30.00 in 10.0 mi North 20.7 mph - N/A   Overcast
9:35 PM 21.2 °F 6.0 °F 17.6 °F 86% 30.03 in 10.0 mi North 19.6 mph - N/A   Overcast
9:55 PM 21.2 °F 6.8 °F 17.6 °F 86% 30.03 in 10.0 mi NNW 17.3 mph - N/A   Overcast
10:15 PM 19.4 °F 4.5 °F 15.8 °F 86% 30.04 in 10.0 mi NNW 17.3 mph 25.3 mph N/A   Overcast
10:35 PM 19.4 °F 6.0 °F 14.0 °F 80% 30.05 in 9.0 mi NNW 13.8 mph - N/A Snow Light Snow
10:55 PM 17.6 °F 3.7 °F 14.0 °F 86% 30.05 in 10.0 mi NNW 13.8 mph 20.7 mph N/A   Overcast
11:15 PM 17.6 °F 1.7 °F 12.2 °F 79% 30.05 in 10.0 mi NNW 18.4 mph - N/A Snow Light Snow
11:35 PM 17.6 °F 5.7 °F 12.2 °F 79% 30.05 in 8.0 mi North 10.4 mph 17.3 mph N/A Snow Light Snow
11:55 PM 17.6 °F 2.7 °F 12.2 °F 79% 30.06 in 10.0 mi NNW 16.1 mph - N/A Snow Light Snow